Voltar ao catálogo

DELTA 1 DEB

AtivoSSO
NORAD 12225·DEBRIS·🇺🇸 United States

Lançado Mar 5, 1978 de Vandenberg Space Force Base

Loading…

Próximas Passagens (próximas 24 horas)

TLE

AtualizadoSource: Space-Track

Época: Sep 14, 2026, 06:56 UTC

1 12225U 78026BS  26257.28945801  .00000423  00000-0  26765-3 0  9992
2 12225  99.1406 187.0453 0037679  39.0681 112.7103 14.09258395332807

Acompanhe DELTA 1 DEB em tempo real com AllMySat

Download on the App Store